Index of /20260430/WXO-DD/model_gdps/15km/12/051
Name Last modified Size Description
Parent Directory -
20260430T12Z_MSC_GDPS_AbsoluteVorticity_IsbL-0200_LatLon0.15_PT051H.grib2 2026-04-30 16:05 1.5M
20260430T12Z_MSC_GDPS_AbsoluteVorticity_IsbL-0250_LatLon0.15_PT051H.grib2 2026-04-30 16:05 1.3M
20260430T12Z_MSC_GDPS_AbsoluteVorticity_IsbL-0500_LatLon0.15_PT051H.grib2 2026-04-30 16:05 1.4M
20260430T12Z_MSC_GDPS_AbsoluteVorticity_IsbL-0700_LatLon0.15_PT051H.grib2 2026-04-30 16:05 1.3M
20260430T12Z_MSC_GDPS_AbsoluteVorticity_IsbL-0850_LatLon0.15_PT051H.grib2 2026-04-30 16:05 1.6M
20260430T12Z_MSC_GDPS_AirTemp_AGL-120m_LatLon0.15_PT051H.grib2 2026-04-30 16:05 909K
20260430T12Z_MSC_GDPS_AirTemp_AGL-2m_LatLon0.15_PT051H.grib2 2026-04-30 16:05 1.0M
20260430T12Z_MSC_GDPS_AirTemp_AGL-40m_LatLon0.15_PT051H.grib2 2026-04-30 16:05 813K
20260430T12Z_MSC_GDPS_AirTemp_AGL-80m_LatLon0.15_PT051H.grib2 2026-04-30 16:05 801K
20260430T12Z_MSC_GDPS_AirTemp_IsbL-0001_LatLon0.15_PT051H.grib2 2026-04-30 16:05 657K
20260430T12Z_MSC_GDPS_AirTemp_IsbL-0005_LatLon0.15_PT051H.grib2 2026-04-30 16:05 687K
20260430T12Z_MSC_GDPS_AirTemp_IsbL-0010_LatLon0.15_PT051H.grib2 2026-04-30 16:05 759K
20260430T12Z_MSC_GDPS_AirTemp_IsbL-0020_LatLon0.15_PT051H.grib2 2026-04-30 16:05 781K
20260430T12Z_MSC_GDPS_AirTemp_IsbL-0030_LatLon0.15_PT051H.grib2 2026-04-30 16:05 832K
20260430T12Z_MSC_GDPS_AirTemp_IsbL-0050_LatLon0.15_PT051H.grib2 2026-04-30 16:05 806K
20260430T12Z_MSC_GDPS_AirTemp_IsbL-0100_LatLon0.15_PT051H.grib2 2026-04-30 16:05 965K
20260430T12Z_MSC_GDPS_AirTemp_IsbL-0150_LatLon0.15_PT051H.grib2 2026-04-30 16:05 1.0M
20260430T12Z_MSC_GDPS_AirTemp_IsbL-0175_LatLon0.15_PT051H.grib2 2026-04-30 16:05 961K
20260430T12Z_MSC_GDPS_AirTemp_IsbL-0200_LatLon0.15_PT051H.grib2 2026-04-30 16:05 1.0M
20260430T12Z_MSC_GDPS_AirTemp_IsbL-0225_LatLon0.15_PT051H.grib2 2026-04-30 16:05 1.0M
20260430T12Z_MSC_GDPS_AirTemp_IsbL-0250_LatLon0.15_PT051H.grib2 2026-04-30 16:05 1.0M
20260430T12Z_MSC_GDPS_AirTemp_IsbL-0275_LatLon0.15_PT051H.grib2 2026-04-30 16:05 1.0M
20260430T12Z_MSC_GDPS_AirTemp_IsbL-0300_LatLon0.15_PT051H.grib2 2026-04-30 16:05 1.0M
20260430T12Z_MSC_GDPS_AirTemp_IsbL-0350_LatLon0.15_PT051H.grib2 2026-04-30 16:05 930K
20260430T12Z_MSC_GDPS_AirTemp_IsbL-0400_LatLon0.15_PT051H.grib2 2026-04-30 16:05 939K
20260430T12Z_MSC_GDPS_AirTemp_IsbL-0450_LatLon0.15_PT051H.grib2 2026-04-30 16:05 957K
20260430T12Z_MSC_GDPS_AirTemp_IsbL-0500_LatLon0.15_PT051H.grib2 2026-04-30 16:05 1.0M
20260430T12Z_MSC_GDPS_AirTemp_IsbL-0550_LatLon0.15_PT051H.grib2 2026-04-30 16:05 802K
20260430T12Z_MSC_GDPS_AirTemp_IsbL-0600_LatLon0.15_PT051H.grib2 2026-04-30 16:05 899K
20260430T12Z_MSC_GDPS_AirTemp_IsbL-0650_LatLon0.15_PT051H.grib2 2026-04-30 16:05 925K
20260430T12Z_MSC_GDPS_AirTemp_IsbL-0700_LatLon0.15_PT051H.grib2 2026-04-30 16:05 959K
20260430T12Z_MSC_GDPS_AirTemp_IsbL-0750_LatLon0.15_PT051H.grib2 2026-04-30 16:05 1.0M
20260430T12Z_MSC_GDPS_AirTemp_IsbL-0800_LatLon0.15_PT051H.grib2 2026-04-30 16:05 1.1M
20260430T12Z_MSC_GDPS_AirTemp_IsbL-0850_LatLon0.15_PT051H.grib2 2026-04-30 16:05 1.1M
20260430T12Z_MSC_GDPS_AirTemp_IsbL-0875_LatLon0.15_PT051H.grib2 2026-04-30 16:05 1.2M
20260430T12Z_MSC_GDPS_AirTemp_IsbL-0900_LatLon0.15_PT051H.grib2 2026-04-30 16:05 1.1M
20260430T12Z_MSC_GDPS_AirTemp_IsbL-0925_LatLon0.15_PT051H.grib2 2026-04-30 16:05 1.1M
20260430T12Z_MSC_GDPS_AirTemp_IsbL-0950_LatLon0.15_PT051H.grib2 2026-04-30 16:05 1.2M
20260430T12Z_MSC_GDPS_AirTemp_IsbL-0970_LatLon0.15_PT051H.grib2 2026-04-30 16:05 1.2M
20260430T12Z_MSC_GDPS_AirTemp_IsbL-0985_LatLon0.15_PT051H.grib2 2026-04-30 16:05 1.2M
20260430T12Z_MSC_GDPS_AirTemp_IsbL-1000_LatLon0.15_PT051H.grib2 2026-04-30 16:05 1.1M
20260430T12Z_MSC_GDPS_AirTemp_IsbL-1015_LatLon0.15_PT051H.grib2 2026-04-30 16:05 1.1M
20260430T12Z_MSC_GDPS_Albedo_Sfc_LatLon0.15_PT051H.grib2 2026-04-30 16:05 241K
20260430T12Z_MSC_GDPS_CAPE_Sfc_LatLon0.15_PT051H.grib2 2026-04-30 16:05 3.9M
20260430T12Z_MSC_GDPS_CIN_Sfc_LatLon0.15_PT051H.grib2 2026-04-30 16:05 2.9M
20260430T12Z_MSC_GDPS_CloudWater_EAtm_LatLon0.15_PT051H.grib2 2026-04-30 16:05 537K
20260430T12Z_MSC_GDPS_ConvectivePrecip-Accum_Sfc_LatLon0.15_PT051H.grib2 2026-04-30 16:05 3.0M
20260430T12Z_MSC_GDPS_DewPointDepression_AGL-2m_LatLon0.15_PT051H.grib2 2026-04-30 16:05 767K
20260430T12Z_MSC_GDPS_DewPointDepression_IsbL-0010_LatLon0.15_PT051H.grib2 2026-04-30 16:05 61K
20260430T12Z_MSC_GDPS_DewPointDepression_IsbL-0020_LatLon0.15_PT051H.grib2 2026-04-30 16:05 65K
20260430T12Z_MSC_GDPS_DewPointDepression_IsbL-0030_LatLon0.15_PT051H.grib2 2026-04-30 16:05 81K
20260430T12Z_MSC_GDPS_DewPointDepression_IsbL-0050_LatLon0.15_PT051H.grib2 2026-04-30 16:05 377K
20260430T12Z_MSC_GDPS_DewPointDepression_IsbL-0100_LatLon0.15_PT051H.grib2 2026-04-30 16:05 415K
20260430T12Z_MSC_GDPS_DewPointDepression_IsbL-0150_LatLon0.15_PT051H.grib2 2026-04-30 16:05 470K
20260430T12Z_MSC_GDPS_DewPointDepression_IsbL-0175_LatLon0.15_PT051H.grib2 2026-04-30 16:05 575K
20260430T12Z_MSC_GDPS_DewPointDepression_IsbL-0200_LatLon0.15_PT051H.grib2 2026-04-30 16:05 685K
20260430T12Z_MSC_GDPS_DewPointDepression_IsbL-0225_LatLon0.15_PT051H.grib2 2026-04-30 16:05 786K
20260430T12Z_MSC_GDPS_DewPointDepression_IsbL-0250_LatLon0.15_PT051H.grib2 2026-04-30 16:05 867K
20260430T12Z_MSC_GDPS_DewPointDepression_IsbL-0275_LatLon0.15_PT051H.grib2 2026-04-30 16:05 886K
20260430T12Z_MSC_GDPS_DewPointDepression_IsbL-0300_LatLon0.15_PT051H.grib2 2026-04-30 16:05 923K
20260430T12Z_MSC_GDPS_DewPointDepression_IsbL-0350_LatLon0.15_PT051H.grib2 2026-04-30 16:05 951K
20260430T12Z_MSC_GDPS_DewPointDepression_IsbL-0400_LatLon0.15_PT051H.grib2 2026-04-30 16:05 1.0M
20260430T12Z_MSC_GDPS_DewPointDepression_IsbL-0450_LatLon0.15_PT051H.grib2 2026-04-30 16:05 1.0M
20260430T12Z_MSC_GDPS_DewPointDepression_IsbL-0500_LatLon0.15_PT051H.grib2 2026-04-30 16:05 1.0M
20260430T12Z_MSC_GDPS_DewPointDepression_IsbL-0550_LatLon0.15_PT051H.grib2 2026-04-30 16:05 1.0M
20260430T12Z_MSC_GDPS_DewPointDepression_IsbL-0600_LatLon0.15_PT051H.grib2 2026-04-30 16:05 1.1M
20260430T12Z_MSC_GDPS_DewPointDepression_IsbL-0650_LatLon0.15_PT051H.grib2 2026-04-30 16:05 1.1M
20260430T12Z_MSC_GDPS_DewPointDepression_IsbL-0700_LatLon0.15_PT051H.grib2 2026-04-30 16:05 1.1M
20260430T12Z_MSC_GDPS_DewPointDepression_IsbL-0750_LatLon0.15_PT051H.grib2 2026-04-30 16:05 1.1M
20260430T12Z_MSC_GDPS_DewPointDepression_IsbL-0800_LatLon0.15_PT051H.grib2 2026-04-30 16:05 1.2M
20260430T12Z_MSC_GDPS_DewPointDepression_IsbL-0850_LatLon0.15_PT051H.grib2 2026-04-30 16:05 1.2M
20260430T12Z_MSC_GDPS_DewPointDepression_IsbL-0875_LatLon0.15_PT051H.grib2 2026-04-30 16:05 1.1M
20260430T12Z_MSC_GDPS_DewPointDepression_IsbL-0900_LatLon0.15_PT051H.grib2 2026-04-30 16:05 1.1M
20260430T12Z_MSC_GDPS_DewPointDepression_IsbL-0925_LatLon0.15_PT051H.grib2 2026-04-30 16:05 1.0M
20260430T12Z_MSC_GDPS_DewPointDepression_IsbL-0950_LatLon0.15_PT051H.grib2 2026-04-30 16:05 1.0M
20260430T12Z_MSC_GDPS_DewPointDepression_IsbL-0970_LatLon0.15_PT051H.grib2 2026-04-30 16:05 1.0M
20260430T12Z_MSC_GDPS_DewPointDepression_IsbL-0985_LatLon0.15_PT051H.grib2 2026-04-30 16:05 1.0M
20260430T12Z_MSC_GDPS_DewPointDepression_IsbL-1000_LatLon0.15_PT051H.grib2 2026-04-30 16:05 1.0M
20260430T12Z_MSC_GDPS_DewPointDepression_IsbL-1015_LatLon0.15_PT051H.grib2 2026-04-30 16:05 921K
20260430T12Z_MSC_GDPS_DewPoint_AGL-2m_LatLon0.15_PT051H.grib2 2026-04-30 16:05 613K
20260430T12Z_MSC_GDPS_DownwardLongwaveRadiationFlux-Accum_Sfc_LatLon0.15_PT051H.grib2 2026-04-30 16:05 834K
20260430T12Z_MSC_GDPS_DownwardShortwaveRadiationFlux-Accum_NTAtm_LatLon0.15_PT051H.grib2 2026-04-30 16:05 278K
20260430T12Z_MSC_GDPS_DownwardShortwaveRadiationFlux-Accum_Sfc_LatLon0.15_PT051H.grib2 2026-04-30 16:05 1.0M
20260430T12Z_MSC_GDPS_FreezingRain-Accum1h_Sfc_LatLon0.15_PT051H.grib2 2026-04-30 16:05 42K
20260430T12Z_MSC_GDPS_FreezingRain-Accum3h_Sfc_LatLon0.15_PT051H.grib2 2026-04-30 16:05 55K
20260430T12Z_MSC_GDPS_FreezingRain-Accum_Sfc_LatLon0.15_PT051H.grib2 2026-04-30 16:05 285K
20260430T12Z_MSC_GDPS_GeopotentialHeight_IsbL-0001_LatLon0.15_PT051H.grib2 2026-04-30 16:05 375K
20260430T12Z_MSC_GDPS_GeopotentialHeight_IsbL-0005_LatLon0.15_PT051H.grib2 2026-04-30 16:05 491K
20260430T12Z_MSC_GDPS_GeopotentialHeight_IsbL-0010_LatLon0.15_PT051H.grib2 2026-04-30 16:05 481K
20260430T12Z_MSC_GDPS_GeopotentialHeight_IsbL-0020_LatLon0.15_PT051H.grib2 2026-04-30 16:05 415K
20260430T12Z_MSC_GDPS_GeopotentialHeight_IsbL-0030_LatLon0.15_PT051H.grib2 2026-04-30 16:05 570K
20260430T12Z_MSC_GDPS_GeopotentialHeight_IsbL-0050_LatLon0.15_PT051H.grib2 2026-04-30 16:05 573K
20260430T12Z_MSC_GDPS_GeopotentialHeight_IsbL-0100_LatLon0.15_PT051H.grib2 2026-04-30 16:05 612K
20260430T12Z_MSC_GDPS_GeopotentialHeight_IsbL-0150_LatLon0.15_PT051H.grib2 2026-04-30 16:05 632K
20260430T12Z_MSC_GDPS_GeopotentialHeight_IsbL-0175_LatLon0.15_PT051H.grib2 2026-04-30 16:05 636K
20260430T12Z_MSC_GDPS_GeopotentialHeight_IsbL-0200_LatLon0.15_PT051H.grib2 2026-04-30 16:05 640K
20260430T12Z_MSC_GDPS_GeopotentialHeight_IsbL-0225_LatLon0.15_PT051H.grib2 2026-04-30 16:05 642K
20260430T12Z_MSC_GDPS_GeopotentialHeight_IsbL-0250_LatLon0.15_PT051H.grib2 2026-04-30 16:05 642K
20260430T12Z_MSC_GDPS_GeopotentialHeight_IsbL-0275_LatLon0.15_PT051H.grib2 2026-04-30 16:05 643K
20260430T12Z_MSC_GDPS_GeopotentialHeight_IsbL-0300_LatLon0.15_PT051H.grib2 2026-04-30 16:05 635K
20260430T12Z_MSC_GDPS_GeopotentialHeight_IsbL-0350_LatLon0.15_PT051H.grib2 2026-04-30 16:05 632K
20260430T12Z_MSC_GDPS_GeopotentialHeight_IsbL-0400_LatLon0.15_PT051H.grib2 2026-04-30 16:05 621K
20260430T12Z_MSC_GDPS_GeopotentialHeight_IsbL-0450_LatLon0.15_PT051H.grib2 2026-04-30 16:05 612K
20260430T12Z_MSC_GDPS_GeopotentialHeight_IsbL-0500_LatLon0.15_PT051H.grib2 2026-04-30 16:05 533K
20260430T12Z_MSC_GDPS_GeopotentialHeight_IsbL-0550_LatLon0.15_PT051H.grib2 2026-04-30 16:05 526K
20260430T12Z_MSC_GDPS_GeopotentialHeight_IsbL-0600_LatLon0.15_PT051H.grib2 2026-04-30 16:05 524K
20260430T12Z_MSC_GDPS_GeopotentialHeight_IsbL-0650_LatLon0.15_PT051H.grib2 2026-04-30 16:05 692K
20260430T12Z_MSC_GDPS_GeopotentialHeight_IsbL-0700_LatLon0.15_PT051H.grib2 2026-04-30 16:05 694K
20260430T12Z_MSC_GDPS_GeopotentialHeight_IsbL-0750_LatLon0.15_PT051H.grib2 2026-04-30 16:05 694K
20260430T12Z_MSC_GDPS_GeopotentialHeight_IsbL-0800_LatLon0.15_PT051H.grib2 2026-04-30 16:05 708K
20260430T12Z_MSC_GDPS_GeopotentialHeight_IsbL-0850_LatLon0.15_PT051H.grib2 2026-04-30 16:05 713K
20260430T12Z_MSC_GDPS_GeopotentialHeight_IsbL-0875_LatLon0.15_PT051H.grib2 2026-04-30 16:05 722K
20260430T12Z_MSC_GDPS_GeopotentialHeight_IsbL-0900_LatLon0.15_PT051H.grib2 2026-04-30 16:05 728K
20260430T12Z_MSC_GDPS_GeopotentialHeight_IsbL-0925_LatLon0.15_PT051H.grib2 2026-04-30 16:05 737K
20260430T12Z_MSC_GDPS_GeopotentialHeight_IsbL-0950_LatLon0.15_PT051H.grib2 2026-04-30 16:05 745K
20260430T12Z_MSC_GDPS_GeopotentialHeight_IsbL-0970_LatLon0.15_PT051H.grib2 2026-04-30 16:05 756K
20260430T12Z_MSC_GDPS_GeopotentialHeight_IsbL-0985_LatLon0.15_PT051H.grib2 2026-04-30 16:05 771K
20260430T12Z_MSC_GDPS_GeopotentialHeight_IsbL-1000_LatLon0.15_PT051H.grib2 2026-04-30 16:05 793K
20260430T12Z_MSC_GDPS_GeopotentialHeight_IsbL-1015_LatLon0.15_PT051H.grib2 2026-04-30 16:05 817K
20260430T12Z_MSC_GDPS_Humidex_Sfc_LatLon0.15_PT051H.grib2 2026-04-30 16:05 5.3M
20260430T12Z_MSC_GDPS_IcePellets-Accum1h_Sfc_LatLon0.15_PT051H.grib2 2026-04-30 16:05 9.7K
20260430T12Z_MSC_GDPS_IcePellets-Accum3h_Sfc_LatLon0.15_PT051H.grib2 2026-04-30 16:05 11K
20260430T12Z_MSC_GDPS_IcePellets-Accum_Sfc_LatLon0.15_PT051H.grib2 2026-04-30 16:05 63K
20260430T12Z_MSC_GDPS_KIndex_Sfc_LatLon0.15_PT051H.grib2 2026-04-30 16:05 6.5M
20260430T12Z_MSC_GDPS_LatentHeatNetFlux_Sfc_LatLon0.15_PT051H.grib2 2026-04-30 16:05 716K
20260430T12Z_MSC_GDPS_LiftedIndex-MU-VT_IsbL-0500_LatLon0.15_PT051H.grib2 2026-04-30 16:05 5.4M
20260430T12Z_MSC_GDPS_NetLongwaveRadiationFlux-Accum_Sfc_LatLon0.15_PT051H.grib2 2026-04-30 16:05 1.1M
20260430T12Z_MSC_GDPS_NetShortwaveRadiationFlux-Accum_Sfc_LatLon0.15_PT051H.grib2 2026-04-30 16:05 1.0M
20260430T12Z_MSC_GDPS_O3MixingRatio_Sfc_LatLon0.15_PT051H.grib2 2026-04-30 16:44 2.0M
20260430T12Z_MSC_GDPS_O3_EAtm_LatLon0.15_PT051H.grib2 2026-04-30 16:44 2.5M
20260430T12Z_MSC_GDPS_PlanetaryBoundaryLayerHeight_Sfc_LatLon0.15_PT051H.grib2 2026-04-30 16:05 2.5M
20260430T12Z_MSC_GDPS_Precip-Accum1h_Sfc_LatLon0.15_PT051H.grib2 2026-04-30 16:05 3.2M
20260430T12Z_MSC_GDPS_Precip-Accum3h_Sfc_LatLon0.15_PT051H.grib2 2026-04-30 16:05 3.5M
20260430T12Z_MSC_GDPS_Precip-Accum_Sfc_LatLon0.15_PT051H.grib2 2026-04-30 16:05 4.9M
20260430T12Z_MSC_GDPS_PrecipRate_Sfc_LatLon0.15_PT051H.grib2 2026-04-30 16:05 3.0M
20260430T12Z_MSC_GDPS_PrecipType-Instant_Sfc_LatLon0.15_PT051H.grib2 2026-04-30 16:05 1.6M
20260430T12Z_MSC_GDPS_Pressure_MSL_LatLon0.15_PT051H.grib2 2026-04-30 16:05 839K
20260430T12Z_MSC_GDPS_Pressure_PVU-1.5_LatLon0.15_PT051H.grib2 2026-04-30 16:05 5.8M
20260430T12Z_MSC_GDPS_Pressure_PVU-1_LatLon0.15_PT051H.grib2 2026-04-30 16:05 6.0M
20260430T12Z_MSC_GDPS_Pressure_PVU-2_LatLon0.15_PT051H.grib2 2026-04-30 16:05 5.6M
20260430T12Z_MSC_GDPS_Pressure_Sfc_LatLon0.15_PT051H.grib2 2026-04-30 16:05 1.1M
20260430T12Z_MSC_GDPS_RadiativeTemp_Sfc_LatLon0.15_PT051H.grib2 2026-04-30 16:05 496K
20260430T12Z_MSC_GDPS_Rain-Accum1h_Sfc_LatLon0.15_PT051H.grib2 2026-04-30 16:05 1.7M
20260430T12Z_MSC_GDPS_Rain-Accum3h_Sfc_LatLon0.15_PT051H.grib2 2026-04-30 16:05 1.9M
20260430T12Z_MSC_GDPS_Rain-Accum_Sfc_LatLon0.15_PT051H.grib2 2026-04-30 16:05 3.7M
20260430T12Z_MSC_GDPS_RelativeHumidity_AGL-2m_LatLon0.15_PT051H.grib2 2026-04-30 16:05 1.0M
20260430T12Z_MSC_GDPS_RelativeHumidity_IsbL-0010_LatLon0.15_PT051H.grib2 2026-04-30 16:05 200K
20260430T12Z_MSC_GDPS_RelativeHumidity_IsbL-0020_LatLon0.15_PT051H.grib2 2026-04-30 16:05 169K
20260430T12Z_MSC_GDPS_RelativeHumidity_IsbL-0030_LatLon0.15_PT051H.grib2 2026-04-30 16:05 268K
20260430T12Z_MSC_GDPS_RelativeHumidity_IsbL-0050_LatLon0.15_PT051H.grib2 2026-04-30 16:05 513K
20260430T12Z_MSC_GDPS_RelativeHumidity_IsbL-0100_LatLon0.15_PT051H.grib2 2026-04-30 16:05 517K
20260430T12Z_MSC_GDPS_RelativeHumidity_IsbL-0150_LatLon0.15_PT051H.grib2 2026-04-30 16:05 665K
20260430T12Z_MSC_GDPS_RelativeHumidity_IsbL-0175_LatLon0.15_PT051H.grib2 2026-04-30 16:05 780K
20260430T12Z_MSC_GDPS_RelativeHumidity_IsbL-0200_LatLon0.15_PT051H.grib2 2026-04-30 16:05 700K
20260430T12Z_MSC_GDPS_RelativeHumidity_IsbL-0225_LatLon0.15_PT051H.grib2 2026-04-30 16:05 795K
20260430T12Z_MSC_GDPS_RelativeHumidity_IsbL-0250_LatLon0.15_PT051H.grib2 2026-04-30 16:05 871K
20260430T12Z_MSC_GDPS_RelativeHumidity_IsbL-0275_LatLon0.15_PT051H.grib2 2026-04-30 16:05 891K
20260430T12Z_MSC_GDPS_RelativeHumidity_IsbL-0300_LatLon0.15_PT051H.grib2 2026-04-30 16:05 931K
20260430T12Z_MSC_GDPS_RelativeHumidity_IsbL-0350_LatLon0.15_PT051H.grib2 2026-04-30 16:05 949K
20260430T12Z_MSC_GDPS_RelativeHumidity_IsbL-0400_LatLon0.15_PT051H.grib2 2026-04-30 16:05 972K
20260430T12Z_MSC_GDPS_RelativeHumidity_IsbL-0450_LatLon0.15_PT051H.grib2 2026-04-30 16:05 1.0M
20260430T12Z_MSC_GDPS_RelativeHumidity_IsbL-0500_LatLon0.15_PT051H.grib2 2026-04-30 16:05 1.0M
20260430T12Z_MSC_GDPS_RelativeHumidity_IsbL-0550_LatLon0.15_PT051H.grib2 2026-04-30 16:05 1.1M
20260430T12Z_MSC_GDPS_RelativeHumidity_IsbL-0600_LatLon0.15_PT051H.grib2 2026-04-30 16:05 1.1M
20260430T12Z_MSC_GDPS_RelativeHumidity_IsbL-0650_LatLon0.15_PT051H.grib2 2026-04-30 16:05 1.1M
20260430T12Z_MSC_GDPS_RelativeHumidity_IsbL-0700_LatLon0.15_PT051H.grib2 2026-04-30 16:05 1.2M
20260430T12Z_MSC_GDPS_RelativeHumidity_IsbL-0750_LatLon0.15_PT051H.grib2 2026-04-30 16:05 1.2M
20260430T12Z_MSC_GDPS_RelativeHumidity_IsbL-0800_LatLon0.15_PT051H.grib2 2026-04-30 16:05 1.3M
20260430T12Z_MSC_GDPS_RelativeHumidity_IsbL-0850_LatLon0.15_PT051H.grib2 2026-04-30 16:05 1.3M
20260430T12Z_MSC_GDPS_RelativeHumidity_IsbL-0875_LatLon0.15_PT051H.grib2 2026-04-30 16:05 1.3M
20260430T12Z_MSC_GDPS_RelativeHumidity_IsbL-0900_LatLon0.15_PT051H.grib2 2026-04-30 16:05 1.2M
20260430T12Z_MSC_GDPS_RelativeHumidity_IsbL-0925_LatLon0.15_PT051H.grib2 2026-04-30 16:05 1.2M
20260430T12Z_MSC_GDPS_RelativeHumidity_IsbL-0950_LatLon0.15_PT051H.grib2 2026-04-30 16:05 1.2M
20260430T12Z_MSC_GDPS_RelativeHumidity_IsbL-0970_LatLon0.15_PT051H.grib2 2026-04-30 16:05 1.2M
20260430T12Z_MSC_GDPS_RelativeHumidity_IsbL-0985_LatLon0.15_PT051H.grib2 2026-04-30 16:05 1.2M
20260430T12Z_MSC_GDPS_RelativeHumidity_IsbL-1000_LatLon0.15_PT051H.grib2 2026-04-30 16:05 1.1M
20260430T12Z_MSC_GDPS_RelativeHumidity_IsbL-1015_LatLon0.15_PT051H.grib2 2026-04-30 16:05 1.1M
20260430T12Z_MSC_GDPS_RelativeVorticity_IsbL-0200_LatLon0.15_PT051H.grib2 2026-04-30 16:05 1.5M
20260430T12Z_MSC_GDPS_RelativeVorticity_IsbL-0250_LatLon0.15_PT051H.grib2 2026-04-30 16:05 1.6M
20260430T12Z_MSC_GDPS_RelativeVorticity_IsbL-0500_LatLon0.15_PT051H.grib2 2026-04-30 16:05 1.5M
20260430T12Z_MSC_GDPS_RelativeVorticity_IsbL-0700_LatLon0.15_PT051H.grib2 2026-04-30 16:05 1.3M
20260430T12Z_MSC_GDPS_RelativeVorticity_IsbL-0850_LatLon0.15_PT051H.grib2 2026-04-30 16:05 1.6M
20260430T12Z_MSC_GDPS_Runoff-Accum_Sfc_LatLon0.15_PT051H.grib2 2026-04-30 16:05 129K
20260430T12Z_MSC_GDPS_SensibleHeatNetFlux_Sfc_LatLon0.15_PT051H.grib2 2026-04-30 16:05 647K
20260430T12Z_MSC_GDPS_ShowalterIndex_IsbL-0500_LatLon0.15_PT051H.grib2 2026-04-30 16:05 6.2M
20260430T12Z_MSC_GDPS_Snow-Accum1h_Sfc_LatLon0.15_PT051H.grib2 2026-04-30 16:05 1.0M
20260430T12Z_MSC_GDPS_Snow-Accum3h_Sfc_LatLon0.15_PT051H.grib2 2026-04-30 16:05 1.1M
20260430T12Z_MSC_GDPS_Snow-Accum_Sfc_LatLon0.15_PT051H.grib2 2026-04-30 16:05 1.8M
20260430T12Z_MSC_GDPS_SnowDensity_Sfc_LatLon0.15_PT051H.grib2 2026-04-30 16:05 262K
20260430T12Z_MSC_GDPS_SnowDepth_Sfc_LatLon0.15_PT051H.grib2 2026-04-30 16:05 1.7M
20260430T12Z_MSC_GDPS_SoilTemp_DBS-0to10cm_LatLon0.15_PT051H.grib2 2026-04-30 16:05 506K
20260430T12Z_MSC_GDPS_SoilTemp_Sfc_LatLon0.15_PT051H.grib2 2026-04-30 16:05 574K
20260430T12Z_MSC_GDPS_SoilVolumetricIceContent_Sfc_LatLon0.15_PT051H.grib2 2026-04-30 16:05 201K
20260430T12Z_MSC_GDPS_SoilVolumetricWaterContent_DBS-0to10cm_LatLon0.15_PT051H.grib2 2026-04-30 16:05 587K
20260430T12Z_MSC_GDPS_SoilVolumetricWaterContent_DBS-0to1cm_LatLon0.15_PT051H.grib2 2026-04-30 16:05 650K
20260430T12Z_MSC_GDPS_SpecificHumidity_AGL-120m_LatLon0.15_PT051H.grib2 2026-04-30 16:05 1.1M
20260430T12Z_MSC_GDPS_SpecificHumidity_AGL-2m_LatLon0.15_PT051H.grib2 2026-04-30 16:05 1.2M
20260430T12Z_MSC_GDPS_SpecificHumidity_AGL-40m_LatLon0.15_PT051H.grib2 2026-04-30 16:05 1.1M
20260430T12Z_MSC_GDPS_SpecificHumidity_AGL-80m_LatLon0.15_PT051H.grib2 2026-04-30 16:05 1.1M
20260430T12Z_MSC_GDPS_SpecificHumidity_IsbL-0001_LatLon0.15_PT051H.grib2 2026-04-30 16:05 1.3M
20260430T12Z_MSC_GDPS_SpecificHumidity_IsbL-0005_LatLon0.15_PT051H.grib2 2026-04-30 16:05 1.2M
20260430T12Z_MSC_GDPS_SpecificHumidity_IsbL-0010_LatLon0.15_PT051H.grib2 2026-04-30 16:05 1.3M
20260430T12Z_MSC_GDPS_SpecificHumidity_IsbL-0020_LatLon0.15_PT051H.grib2 2026-04-30 16:05 1.4M
20260430T12Z_MSC_GDPS_SpecificHumidity_IsbL-0030_LatLon0.15_PT051H.grib2 2026-04-30 16:05 1.3M
20260430T12Z_MSC_GDPS_SpecificHumidity_IsbL-0050_LatLon0.15_PT051H.grib2 2026-04-30 16:05 1.7M
20260430T12Z_MSC_GDPS_SpecificHumidity_IsbL-0100_LatLon0.15_PT051H.grib2 2026-04-30 16:05 1.4M
20260430T12Z_MSC_GDPS_SpecificHumidity_IsbL-0150_LatLon0.15_PT051H.grib2 2026-04-30 16:05 1.3M
20260430T12Z_MSC_GDPS_SpecificHumidity_IsbL-0175_LatLon0.15_PT051H.grib2 2026-04-30 16:05 1.2M
20260430T12Z_MSC_GDPS_SpecificHumidity_IsbL-0200_LatLon0.15_PT051H.grib2 2026-04-30 16:05 1.3M
20260430T12Z_MSC_GDPS_SpecificHumidity_IsbL-0225_LatLon0.15_PT051H.grib2 2026-04-30 16:05 1.3M
20260430T12Z_MSC_GDPS_SpecificHumidity_IsbL-0250_LatLon0.15_PT051H.grib2 2026-04-30 16:05 1.4M
20260430T12Z_MSC_GDPS_SpecificHumidity_IsbL-0275_LatLon0.15_PT051H.grib2 2026-04-30 16:05 1.3M
20260430T12Z_MSC_GDPS_SpecificHumidity_IsbL-0300_LatLon0.15_PT051H.grib2 2026-04-30 16:05 1.2M
20260430T12Z_MSC_GDPS_SpecificHumidity_IsbL-0350_LatLon0.15_PT051H.grib2 2026-04-30 16:05 1.2M
20260430T12Z_MSC_GDPS_SpecificHumidity_IsbL-0400_LatLon0.15_PT051H.grib2 2026-04-30 16:05 1.5M
20260430T12Z_MSC_GDPS_SpecificHumidity_IsbL-0450_LatLon0.15_PT051H.grib2 2026-04-30 16:05 1.6M
20260430T12Z_MSC_GDPS_SpecificHumidity_IsbL-0500_LatLon0.15_PT051H.grib2 2026-04-30 16:05 1.4M
20260430T12Z_MSC_GDPS_SpecificHumidity_IsbL-0550_LatLon0.15_PT051H.grib2 2026-04-30 16:05 1.6M
20260430T12Z_MSC_GDPS_SpecificHumidity_IsbL-0600_LatLon0.15_PT051H.grib2 2026-04-30 16:05 1.7M
20260430T12Z_MSC_GDPS_SpecificHumidity_IsbL-0650_LatLon0.15_PT051H.grib2 2026-04-30 16:05 1.5M
20260430T12Z_MSC_GDPS_SpecificHumidity_IsbL-0700_LatLon0.15_PT051H.grib2 2026-04-30 16:05 1.6M
20260430T12Z_MSC_GDPS_SpecificHumidity_IsbL-0750_LatLon0.15_PT051H.grib2 2026-04-30 16:05 1.7M
20260430T12Z_MSC_GDPS_SpecificHumidity_IsbL-0800_LatLon0.15_PT051H.grib2 2026-04-30 16:05 1.9M
20260430T12Z_MSC_GDPS_SpecificHumidity_IsbL-0850_LatLon0.15_PT051H.grib2 2026-04-30 16:05 1.9M
20260430T12Z_MSC_GDPS_SpecificHumidity_IsbL-0875_LatLon0.15_PT051H.grib2 2026-04-30 16:05 1.9M
20260430T12Z_MSC_GDPS_SpecificHumidity_IsbL-0900_LatLon0.15_PT051H.grib2 2026-04-30 16:05 1.9M
20260430T12Z_MSC_GDPS_SpecificHumidity_IsbL-0925_LatLon0.15_PT051H.grib2 2026-04-30 16:05 1.6M
20260430T12Z_MSC_GDPS_SpecificHumidity_IsbL-0950_LatLon0.15_PT051H.grib2 2026-04-30 16:05 1.6M
20260430T12Z_MSC_GDPS_SpecificHumidity_IsbL-0970_LatLon0.15_PT051H.grib2 2026-04-30 16:05 1.6M
20260430T12Z_MSC_GDPS_SpecificHumidity_IsbL-0985_LatLon0.15_PT051H.grib2 2026-04-30 16:05 1.5M
20260430T12Z_MSC_GDPS_SpecificHumidity_IsbL-1000_LatLon0.15_PT051H.grib2 2026-04-30 16:05 1.5M
20260430T12Z_MSC_GDPS_SpecificHumidity_IsbL-1015_LatLon0.15_PT051H.grib2 2026-04-30 16:05 1.5M
20260430T12Z_MSC_GDPS_SpecificHumidity_Sfc_LatLon0.15_PT051H.grib2 2026-04-30 16:05 675K
20260430T12Z_MSC_GDPS_Thickness_IsbL-0850to0700_LatLon0.15_PT051H.grib2 2026-04-30 16:05 469K
20260430T12Z_MSC_GDPS_Thickness_IsbL-1000to0500_LatLon0.15_PT051H.grib2 2026-04-30 16:05 372K
20260430T12Z_MSC_GDPS_Thickness_IsbL-1000to0850_LatLon0.15_PT051H.grib2 2026-04-30 16:05 492K
20260430T12Z_MSC_GDPS_TotalCloudCover_Sfc_LatLon0.15_PT051H.grib2 2026-04-30 16:05 830K
20260430T12Z_MSC_GDPS_TotalTotalsIndex_Sfc_LatLon0.15_PT051H.grib2 2026-04-30 16:05 6.2M
20260430T12Z_MSC_GDPS_UVIndex-ClearSky_Sfc_LatLon0.15_PT051H.grib2 2026-04-30 16:44 1.0M
20260430T12Z_MSC_GDPS_UVIndex_Sfc_LatLon0.15_PT051H.grib2 2026-04-30 16:44 1.5M
20260430T12Z_MSC_GDPS_UpwardLongwaveRadiationFlux_NTAtm_LatLon0.15_PT051H.grib2 2026-04-30 16:05 843K
20260430T12Z_MSC_GDPS_VerticalVelocity_IsbL-0200_LatLon0.15_PT051H.grib2 2026-04-30 16:05 1.2M
20260430T12Z_MSC_GDPS_VerticalVelocity_IsbL-0250_LatLon0.15_PT051H.grib2 2026-04-30 16:05 1.0M
20260430T12Z_MSC_GDPS_VerticalVelocity_IsbL-0500_LatLon0.15_PT051H.grib2 2026-04-30 16:05 1.3M
20260430T12Z_MSC_GDPS_VerticalVelocity_IsbL-0600_LatLon0.15_PT051H.grib2 2026-04-30 16:05 1.1M
20260430T12Z_MSC_GDPS_VerticalVelocity_IsbL-0700_LatLon0.15_PT051H.grib2 2026-04-30 16:05 1.1M
20260430T12Z_MSC_GDPS_VerticalVelocity_IsbL-0850_LatLon0.15_PT051H.grib2 2026-04-30 16:05 1.3M
20260430T12Z_MSC_GDPS_WindChill_Sfc_LatLon0.15_PT051H.grib2 2026-04-30 16:05 5.3M
20260430T12Z_MSC_GDPS_WindDir_AGL-10m_LatLon0.15_PT051H.grib2 2026-04-30 16:05 1.3M
20260430T12Z_MSC_GDPS_WindDir_AGL-120m_LatLon0.15_PT051H.grib2 2026-04-30 16:05 1.3M
20260430T12Z_MSC_GDPS_WindDir_AGL-40m_LatLon0.15_PT051H.grib2 2026-04-30 16:05 1.4M
20260430T12Z_MSC_GDPS_WindDir_AGL-80m_LatLon0.15_PT051H.grib2 2026-04-30 16:05 1.4M
20260430T12Z_MSC_GDPS_WindDir_IsbL-0001_LatLon0.15_PT051H.grib2 2026-04-30 16:05 670K
20260430T12Z_MSC_GDPS_WindDir_IsbL-0005_LatLon0.15_PT051H.grib2 2026-04-30 16:05 817K
20260430T12Z_MSC_GDPS_WindDir_IsbL-0010_LatLon0.15_PT051H.grib2 2026-04-30 16:05 838K
20260430T12Z_MSC_GDPS_WindDir_IsbL-0020_LatLon0.15_PT051H.grib2 2026-04-30 16:05 955K
20260430T12Z_MSC_GDPS_WindDir_IsbL-0030_LatLon0.15_PT051H.grib2 2026-04-30 16:05 940K
20260430T12Z_MSC_GDPS_WindDir_IsbL-0050_LatLon0.15_PT051H.grib2 2026-04-30 16:05 945K
20260430T12Z_MSC_GDPS_WindDir_IsbL-0100_LatLon0.15_PT051H.grib2 2026-04-30 16:05 1.0M
20260430T12Z_MSC_GDPS_WindDir_IsbL-0150_LatLon0.15_PT051H.grib2 2026-04-30 16:05 1.0M
20260430T12Z_MSC_GDPS_WindDir_IsbL-0175_LatLon0.15_PT051H.grib2 2026-04-30 16:05 1.0M
20260430T12Z_MSC_GDPS_WindDir_IsbL-0200_LatLon0.15_PT051H.grib2 2026-04-30 16:05 1.1M
20260430T12Z_MSC_GDPS_WindDir_IsbL-0225_LatLon0.15_PT051H.grib2 2026-04-30 16:05 1.1M
20260430T12Z_MSC_GDPS_WindDir_IsbL-0250_LatLon0.15_PT051H.grib2 2026-04-30 16:05 1.1M
20260430T12Z_MSC_GDPS_WindDir_IsbL-0275_LatLon0.15_PT051H.grib2 2026-04-30 16:05 1.2M
20260430T12Z_MSC_GDPS_WindDir_IsbL-0300_LatLon0.15_PT051H.grib2 2026-04-30 16:05 1.2M
20260430T12Z_MSC_GDPS_WindDir_IsbL-0350_LatLon0.15_PT051H.grib2 2026-04-30 16:05 1.2M
20260430T12Z_MSC_GDPS_WindDir_IsbL-0400_LatLon0.15_PT051H.grib2 2026-04-30 16:05 1.3M
20260430T12Z_MSC_GDPS_WindDir_IsbL-0450_LatLon0.15_PT051H.grib2 2026-04-30 16:05 1.3M
20260430T12Z_MSC_GDPS_WindDir_IsbL-0500_LatLon0.15_PT051H.grib2 2026-04-30 16:05 1.3M
20260430T12Z_MSC_GDPS_WindDir_IsbL-0550_LatLon0.15_PT051H.grib2 2026-04-30 16:05 1.4M
20260430T12Z_MSC_GDPS_WindDir_IsbL-0600_LatLon0.15_PT051H.grib2 2026-04-30 16:05 1.4M
20260430T12Z_MSC_GDPS_WindDir_IsbL-0650_LatLon0.15_PT051H.grib2 2026-04-30 16:05 1.5M
20260430T12Z_MSC_GDPS_WindDir_IsbL-0700_LatLon0.15_PT051H.grib2 2026-04-30 16:05 1.6M
20260430T12Z_MSC_GDPS_WindDir_IsbL-0750_LatLon0.15_PT051H.grib2 2026-04-30 16:05 1.7M
20260430T12Z_MSC_GDPS_WindDir_IsbL-0800_LatLon0.15_PT051H.grib2 2026-04-30 16:05 1.8M
20260430T12Z_MSC_GDPS_WindDir_IsbL-0850_LatLon0.15_PT051H.grib2 2026-04-30 16:05 1.9M
20260430T12Z_MSC_GDPS_WindDir_IsbL-0875_LatLon0.15_PT051H.grib2 2026-04-30 16:05 2.0M
20260430T12Z_MSC_GDPS_WindDir_IsbL-0900_LatLon0.15_PT051H.grib2 2026-04-30 16:05 2.0M
20260430T12Z_MSC_GDPS_WindDir_IsbL-0925_LatLon0.15_PT051H.grib2 2026-04-30 16:05 2.0M
20260430T12Z_MSC_GDPS_WindDir_IsbL-0950_LatLon0.15_PT051H.grib2 2026-04-30 16:05 2.0M
20260430T12Z_MSC_GDPS_WindDir_IsbL-0970_LatLon0.15_PT051H.grib2 2026-04-30 16:05 2.0M
20260430T12Z_MSC_GDPS_WindDir_IsbL-0985_LatLon0.15_PT051H.grib2 2026-04-30 16:05 2.0M
20260430T12Z_MSC_GDPS_WindDir_IsbL-1000_LatLon0.15_PT051H.grib2 2026-04-30 16:05 2.1M
20260430T12Z_MSC_GDPS_WindDir_IsbL-1015_LatLon0.15_PT051H.grib2 2026-04-30 16:05 2.0M
20260430T12Z_MSC_GDPS_WindGust-Max_AGL-10m_LatLon0.15_PT051H.grib2 2026-04-30 16:05 1.8M
20260430T12Z_MSC_GDPS_WindGust-Min_AGL-10m_LatLon0.15_PT051H.grib2 2026-04-30 16:05 1.8M
20260430T12Z_MSC_GDPS_WindGust_AGL-10m_LatLon0.15_PT051H.grib2 2026-04-30 16:05 1.8M
20260430T12Z_MSC_GDPS_WindSpeed_AGL-10m_LatLon0.15_PT051H.grib2 2026-04-30 16:05 1.1M
20260430T12Z_MSC_GDPS_WindSpeed_AGL-120m_LatLon0.15_PT051H.grib2 2026-04-30 16:05 1.2M
20260430T12Z_MSC_GDPS_WindSpeed_AGL-40m_LatLon0.15_PT051H.grib2 2026-04-30 16:05 1.2M
20260430T12Z_MSC_GDPS_WindSpeed_AGL-80m_LatLon0.15_PT051H.grib2 2026-04-30 16:05 1.2M
20260430T12Z_MSC_GDPS_WindSpeed_IsbL-0001_LatLon0.15_PT051H.grib2 2026-04-30 16:05 643K
20260430T12Z_MSC_GDPS_WindSpeed_IsbL-0005_LatLon0.15_PT051H.grib2 2026-04-30 16:05 692K
20260430T12Z_MSC_GDPS_WindSpeed_IsbL-0010_LatLon0.15_PT051H.grib2 2026-04-30 16:05 627K
20260430T12Z_MSC_GDPS_WindSpeed_IsbL-0020_LatLon0.15_PT051H.grib2 2026-04-30 16:05 666K
20260430T12Z_MSC_GDPS_WindSpeed_IsbL-0030_LatLon0.15_PT051H.grib2 2026-04-30 16:05 864K
20260430T12Z_MSC_GDPS_WindSpeed_IsbL-0050_LatLon0.15_PT051H.grib2 2026-04-30 16:05 904K
20260430T12Z_MSC_GDPS_WindSpeed_IsbL-0100_LatLon0.15_PT051H.grib2 2026-04-30 16:05 1.1M
20260430T12Z_MSC_GDPS_WindSpeed_IsbL-0150_LatLon0.15_PT051H.grib2 2026-04-30 16:05 948K
20260430T12Z_MSC_GDPS_WindSpeed_IsbL-0175_LatLon0.15_PT051H.grib2 2026-04-30 16:05 1.0M
20260430T12Z_MSC_GDPS_WindSpeed_IsbL-0200_LatLon0.15_PT051H.grib2 2026-04-30 16:05 1.1M
20260430T12Z_MSC_GDPS_WindSpeed_IsbL-0225_LatLon0.15_PT051H.grib2 2026-04-30 16:05 1.1M
20260430T12Z_MSC_GDPS_WindSpeed_IsbL-0250_LatLon0.15_PT051H.grib2 2026-04-30 16:05 1.1M
20260430T12Z_MSC_GDPS_WindSpeed_IsbL-0275_LatLon0.15_PT051H.grib2 2026-04-30 16:05 1.1M
20260430T12Z_MSC_GDPS_WindSpeed_IsbL-0300_LatLon0.15_PT051H.grib2 2026-04-30 16:05 1.1M
20260430T12Z_MSC_GDPS_WindSpeed_IsbL-0350_LatLon0.15_PT051H.grib2 2026-04-30 16:05 1.1M
20260430T12Z_MSC_GDPS_WindSpeed_IsbL-0400_LatLon0.15_PT051H.grib2 2026-04-30 16:05 1.1M
20260430T12Z_MSC_GDPS_WindSpeed_IsbL-0450_LatLon0.15_PT051H.grib2 2026-04-30 16:05 1.1M
20260430T12Z_MSC_GDPS_WindSpeed_IsbL-0500_LatLon0.15_PT051H.grib2 2026-04-30 16:05 1.1M
20260430T12Z_MSC_GDPS_WindSpeed_IsbL-0550_LatLon0.15_PT051H.grib2 2026-04-30 16:05 1.1M
20260430T12Z_MSC_GDPS_WindSpeed_IsbL-0600_LatLon0.15_PT051H.grib2 2026-04-30 16:05 1.1M
20260430T12Z_MSC_GDPS_WindSpeed_IsbL-0650_LatLon0.15_PT051H.grib2 2026-04-30 16:05 1.2M
20260430T12Z_MSC_GDPS_WindSpeed_IsbL-0700_LatLon0.15_PT051H.grib2 2026-04-30 16:05 1.2M
20260430T12Z_MSC_GDPS_WindSpeed_IsbL-0750_LatLon0.15_PT051H.grib2 2026-04-30 16:05 1.6M
20260430T12Z_MSC_GDPS_WindSpeed_IsbL-0800_LatLon0.15_PT051H.grib2 2026-04-30 16:05 1.4M
20260430T12Z_MSC_GDPS_WindSpeed_IsbL-0850_LatLon0.15_PT051H.grib2 2026-04-30 16:05 1.8M
20260430T12Z_MSC_GDPS_WindSpeed_IsbL-0875_LatLon0.15_PT051H.grib2 2026-04-30 16:05 1.5M
20260430T12Z_MSC_GDPS_WindSpeed_IsbL-0900_LatLon0.15_PT051H.grib2 2026-04-30 16:05 1.8M
20260430T12Z_MSC_GDPS_WindSpeed_IsbL-0925_LatLon0.15_PT051H.grib2 2026-04-30 16:05 1.8M
20260430T12Z_MSC_GDPS_WindSpeed_IsbL-0950_LatLon0.15_PT051H.grib2 2026-04-30 16:05 1.8M
20260430T12Z_MSC_GDPS_WindSpeed_IsbL-0970_LatLon0.15_PT051H.grib2 2026-04-30 16:05 1.9M
20260430T12Z_MSC_GDPS_WindSpeed_IsbL-0985_LatLon0.15_PT051H.grib2 2026-04-30 16:05 1.9M
20260430T12Z_MSC_GDPS_WindSpeed_IsbL-1000_LatLon0.15_PT051H.grib2 2026-04-30 16:05 1.9M
20260430T12Z_MSC_GDPS_WindSpeed_IsbL-1015_LatLon0.15_PT051H.grib2 2026-04-30 16:05 1.8M
20260430T12Z_MSC_GDPS_WindU_AGL-10m_LatLon0.15_PT051H.grib2 2026-04-30 16:05 1.3M
20260430T12Z_MSC_GDPS_WindU_AGL-120m_LatLon0.15_PT051H.grib2 2026-04-30 16:05 1.0M
20260430T12Z_MSC_GDPS_WindU_AGL-40m_LatLon0.15_PT051H.grib2 2026-04-30 16:05 1.0M
20260430T12Z_MSC_GDPS_WindU_AGL-80m_LatLon0.15_PT051H.grib2 2026-04-30 16:05 1.0M
20260430T12Z_MSC_GDPS_WindU_IsbL-0001_LatLon0.15_PT051H.grib2 2026-04-30 16:05 500K
20260430T12Z_MSC_GDPS_WindU_IsbL-0005_LatLon0.15_PT051H.grib2 2026-04-30 16:05 690K
20260430T12Z_MSC_GDPS_WindU_IsbL-0010_LatLon0.15_PT051H.grib2 2026-04-30 16:05 701K
20260430T12Z_MSC_GDPS_WindU_IsbL-0020_LatLon0.15_PT051H.grib2 2026-04-30 16:05 733K
20260430T12Z_MSC_GDPS_WindU_IsbL-0030_LatLon0.15_PT051H.grib2 2026-04-30 16:05 737K
20260430T12Z_MSC_GDPS_WindU_IsbL-0050_LatLon0.15_PT051H.grib2 2026-04-30 16:05 768K
20260430T12Z_MSC_GDPS_WindU_IsbL-0100_LatLon0.15_PT051H.grib2 2026-04-30 16:05 925K
20260430T12Z_MSC_GDPS_WindU_IsbL-0150_LatLon0.15_PT051H.grib2 2026-04-30 16:05 1.0M
20260430T12Z_MSC_GDPS_WindU_IsbL-0175_LatLon0.15_PT051H.grib2 2026-04-30 16:05 816K
20260430T12Z_MSC_GDPS_WindU_IsbL-0200_LatLon0.15_PT051H.grib2 2026-04-30 16:05 844K
20260430T12Z_MSC_GDPS_WindU_IsbL-0225_LatLon0.15_PT051H.grib2 2026-04-30 16:05 855K
20260430T12Z_MSC_GDPS_WindU_IsbL-0250_LatLon0.15_PT051H.grib2 2026-04-30 16:05 857K
20260430T12Z_MSC_GDPS_WindU_IsbL-0275_LatLon0.15_PT051H.grib2 2026-04-30 16:05 886K
20260430T12Z_MSC_GDPS_WindU_IsbL-0300_LatLon0.15_PT051H.grib2 2026-04-30 16:05 876K
20260430T12Z_MSC_GDPS_WindU_IsbL-0350_LatLon0.15_PT051H.grib2 2026-04-30 16:05 888K
20260430T12Z_MSC_GDPS_WindU_IsbL-0400_LatLon0.15_PT051H.grib2 2026-04-30 16:05 1.1M
20260430T12Z_MSC_GDPS_WindU_IsbL-0450_LatLon0.15_PT051H.grib2 2026-04-30 16:05 1.1M
20260430T12Z_MSC_GDPS_WindU_IsbL-0500_LatLon0.15_PT051H.grib2 2026-04-30 16:05 1.1M
20260430T12Z_MSC_GDPS_WindU_IsbL-0550_LatLon0.15_PT051H.grib2 2026-04-30 16:05 1.1M
20260430T12Z_MSC_GDPS_WindU_IsbL-0600_LatLon0.15_PT051H.grib2 2026-04-30 16:05 1.2M
20260430T12Z_MSC_GDPS_WindU_IsbL-0650_LatLon0.15_PT051H.grib2 2026-04-30 16:05 1.2M
20260430T12Z_MSC_GDPS_WindU_IsbL-0700_LatLon0.15_PT051H.grib2 2026-04-30 16:05 1.2M
20260430T12Z_MSC_GDPS_WindU_IsbL-0750_LatLon0.15_PT051H.grib2 2026-04-30 16:05 1.3M
20260430T12Z_MSC_GDPS_WindU_IsbL-0800_LatLon0.15_PT051H.grib2 2026-04-30 16:05 1.4M
20260430T12Z_MSC_GDPS_WindU_IsbL-0850_LatLon0.15_PT051H.grib2 2026-04-30 16:05 1.4M
20260430T12Z_MSC_GDPS_WindU_IsbL-0875_LatLon0.15_PT051H.grib2 2026-04-30 16:05 1.5M
20260430T12Z_MSC_GDPS_WindU_IsbL-0900_LatLon0.15_PT051H.grib2 2026-04-30 16:05 1.5M
20260430T12Z_MSC_GDPS_WindU_IsbL-0925_LatLon0.15_PT051H.grib2 2026-04-30 16:05 1.5M
20260430T12Z_MSC_GDPS_WindU_IsbL-0950_LatLon0.15_PT051H.grib2 2026-04-30 16:05 1.4M
20260430T12Z_MSC_GDPS_WindU_IsbL-0970_LatLon0.15_PT051H.grib2 2026-04-30 16:05 1.4M
20260430T12Z_MSC_GDPS_WindU_IsbL-0985_LatLon0.15_PT051H.grib2 2026-04-30 16:05 1.4M
20260430T12Z_MSC_GDPS_WindU_IsbL-1000_LatLon0.15_PT051H.grib2 2026-04-30 16:05 1.4M
20260430T12Z_MSC_GDPS_WindU_IsbL-1015_LatLon0.15_PT051H.grib2 2026-04-30 16:05 1.4M
20260430T12Z_MSC_GDPS_WindV_AGL-10m_LatLon0.15_PT051H.grib2 2026-04-30 16:05 1.3M
20260430T12Z_MSC_GDPS_WindV_AGL-120m_LatLon0.15_PT051H.grib2 2026-04-30 16:05 1.0M
20260430T12Z_MSC_GDPS_WindV_AGL-40m_LatLon0.15_PT051H.grib2 2026-04-30 16:05 1.0M
20260430T12Z_MSC_GDPS_WindV_AGL-80m_LatLon0.15_PT051H.grib2 2026-04-30 16:05 1.0M
20260430T12Z_MSC_GDPS_WindV_IsbL-0001_LatLon0.15_PT051H.grib2 2026-04-30 16:05 713K
20260430T12Z_MSC_GDPS_WindV_IsbL-0005_LatLon0.15_PT051H.grib2 2026-04-30 16:05 764K
20260430T12Z_MSC_GDPS_WindV_IsbL-0010_LatLon0.15_PT051H.grib2 2026-04-30 16:05 793K
20260430T12Z_MSC_GDPS_WindV_IsbL-0020_LatLon0.15_PT051H.grib2 2026-04-30 16:05 851K
20260430T12Z_MSC_GDPS_WindV_IsbL-0030_LatLon0.15_PT051H.grib2 2026-04-30 16:05 853K
20260430T12Z_MSC_GDPS_WindV_IsbL-0050_LatLon0.15_PT051H.grib2 2026-04-30 16:05 902K
20260430T12Z_MSC_GDPS_WindV_IsbL-0100_LatLon0.15_PT051H.grib2 2026-04-30 16:05 1.1M
20260430T12Z_MSC_GDPS_WindV_IsbL-0150_LatLon0.15_PT051H.grib2 2026-04-30 16:05 1.0M
20260430T12Z_MSC_GDPS_WindV_IsbL-0175_LatLon0.15_PT051H.grib2 2026-04-30 16:05 1.0M
20260430T12Z_MSC_GDPS_WindV_IsbL-0200_LatLon0.15_PT051H.grib2 2026-04-30 16:05 843K
20260430T12Z_MSC_GDPS_WindV_IsbL-0225_LatLon0.15_PT051H.grib2 2026-04-30 16:05 851K
20260430T12Z_MSC_GDPS_WindV_IsbL-0250_LatLon0.15_PT051H.grib2 2026-04-30 16:05 909K
20260430T12Z_MSC_GDPS_WindV_IsbL-0275_LatLon0.15_PT051H.grib2 2026-04-30 16:05 935K
20260430T12Z_MSC_GDPS_WindV_IsbL-0300_LatLon0.15_PT051H.grib2 2026-04-30 16:05 925K
20260430T12Z_MSC_GDPS_WindV_IsbL-0350_LatLon0.15_PT051H.grib2 2026-04-30 16:05 877K
20260430T12Z_MSC_GDPS_WindV_IsbL-0400_LatLon0.15_PT051H.grib2 2026-04-30 16:05 879K
20260430T12Z_MSC_GDPS_WindV_IsbL-0450_LatLon0.15_PT051H.grib2 2026-04-30 16:05 881K
20260430T12Z_MSC_GDPS_WindV_IsbL-0500_LatLon0.15_PT051H.grib2 2026-04-30 16:05 1.1M
20260430T12Z_MSC_GDPS_WindV_IsbL-0550_LatLon0.15_PT051H.grib2 2026-04-30 16:05 1.1M
20260430T12Z_MSC_GDPS_WindV_IsbL-0600_LatLon0.15_PT051H.grib2 2026-04-30 16:05 1.1M
20260430T12Z_MSC_GDPS_WindV_IsbL-0650_LatLon0.15_PT051H.grib2 2026-04-30 16:05 1.2M
20260430T12Z_MSC_GDPS_WindV_IsbL-0700_LatLon0.15_PT051H.grib2 2026-04-30 16:05 1.2M
20260430T12Z_MSC_GDPS_WindV_IsbL-0750_LatLon0.15_PT051H.grib2 2026-04-30 16:05 1.3M
20260430T12Z_MSC_GDPS_WindV_IsbL-0800_LatLon0.15_PT051H.grib2 2026-04-30 16:05 1.4M
20260430T12Z_MSC_GDPS_WindV_IsbL-0850_LatLon0.15_PT051H.grib2 2026-04-30 16:05 1.4M
20260430T12Z_MSC_GDPS_WindV_IsbL-0875_LatLon0.15_PT051H.grib2 2026-04-30 16:05 1.4M
20260430T12Z_MSC_GDPS_WindV_IsbL-0900_LatLon0.15_PT051H.grib2 2026-04-30 16:05 1.5M
20260430T12Z_MSC_GDPS_WindV_IsbL-0925_LatLon0.15_PT051H.grib2 2026-04-30 16:05 1.5M
20260430T12Z_MSC_GDPS_WindV_IsbL-0950_LatLon0.15_PT051H.grib2 2026-04-30 16:05 1.4M
20260430T12Z_MSC_GDPS_WindV_IsbL-0970_LatLon0.15_PT051H.grib2 2026-04-30 16:05 1.4M
20260430T12Z_MSC_GDPS_WindV_IsbL-0985_LatLon0.15_PT051H.grib2 2026-04-30 16:05 1.4M
20260430T12Z_MSC_GDPS_WindV_IsbL-1000_LatLon0.15_PT051H.grib2 2026-04-30 16:05 1.4M
20260430T12Z_MSC_GDPS_WindV_IsbL-1015_LatLon0.15_PT051H.grib2 2026-04-30 16:05 1.4M